Weather observations for the past three days for
Hutchinson, Hutchinson Municipal Airport-Butler Field
Imperial (Metric)
Date Time (cdt) Wind (mph) Vis. (mi.) Weather Sky Cond. Temperature (ºF) Relative Humidity Wind Chill (°F) Heat Index (°F) Pressure Precipitation (in)
Air Dwpt 6 hour altimeter (in) sea level (mb) 1 hr 3 hr 6 hr
Max. Min.
24 01:15 Calm 10.00 Fair CLR 67.1 62.8 86% 29.9 0.0
24 00:55 Calm 10.00 Fair CLR 67.5 63.1 81.7 67.5 86% 29.9 0.0
24 00:35 Calm 10.00 Fair CLR 68.7 63.7 84% 29.91 0.0
24 00:15 Calm 10.00 Partly Cloudy SCT060 70 63.7 81% 29.91 0.0
23 23:55 Calm 10.00 Partly Cloudy SCT060 68.2 64.8 89% 29.91 0.0
23 23:35 Calm 10.00 Partly Cloudy SCT060 70.2 64.6 83% 29.9 0.0
23 23:15 Calm 10.00 Partly Cloudy SCT060 69.1 64.8 86% 29.9 0.0
23 22:55 Calm 10.00 Fair CLR 70.5 63.7 79% 29.9 0.0
23 22:35 Calm 10.00 Fair CLR 70.5 65.1 83% 29.9 0.0
23 22:15 Calm 10.00 Partly Cloudy SCT055 SCT075 71.1 65.5 83% 29.9 0.0
23 21:55 Calm 10.00 Mostly Cloudy SCT055 BKN075 72.7 64.6 76% 29.89 0.0
23 21:35 Calm 10.00 Mostly Cloudy SCT055 BKN075 73.4 65.7 77% 29.89 0.0
23 21:15 Calm 10.00 Mostly Cloudy SCT065 BKN075 73.9 65.1 74% 29.89 0.0
23 20:55 Calm 10.00 Partly Cloudy SCT060 SCT075 75.2 64.4 69% 77 29.89 0.0
23 20:35 Calm 10.00 Partly Cloudy SCT060 76.6 64 65% 78 29.89 0.0
23 19:55 W 5 10.00 Partly Cloudy SCT055 79.9 61 53% 81 29.89 0.0
23 18:55 W 6 10.00 Fair CLR 79.9 60.1 83.3 79.2 51% 81 29.88 0.0
23 18:35 W 8 10.00 Partly Cloudy SCT060 SCT070 SCT080 82.2 58.3 44% 82 29.88 0.0
23 18:15 W 6 10.00 Partly Cloudy SCT060 SCT080 81.9 58.1 44% 82 29.88 0.0
23 17:55 W 8 10.00 Partly Cloudy SCT060 SCT070 SCT080 82.8 57.2 42% 82 29.88 0.0
23 17:35 NW 7 G 12 10.00 Fair CLR 82.8 53.8 37% 82 29.88 0.0
23 17:15 W 6 10.00 Fair CLR 83.3 54.7 37% 82 29.88 0.0
23 16:55 NW 8 10.00 Fair CLR 83.1 54.3 37% 82 29.89 0.0
23 16:35 W 9 10.00 Fair CLR 83.3 55.6 39% 82 29.88 0.0
23 16:15 NW 9 10.00 Partly Cloudy SCT055 SCT070 SCT080 83.1 55.8 39% 82 29.88 0.0
23 15:55 NW 12 10.00 Partly Cloudy SCT055 SCT070 SCT080 82.8 57.6 42% 82 29.89 0.0
23 15:35 NW 13 G 16 10.00 Fair CLR 82.4 57.2 42% 82 29.89 0.0
23 15:15 W 7 G 18 7.00 Fair CLR 82 56.7 42% 82 29.89 0.0
23 14:55 W 9 10.00 Fair CLR 82.4 57.2 42% 82 29.89 0.0
23 14:35 W 13 10.00 Fair CLR 81.9 56.8 42% 82 29.89 0.0
23 14:15 W 8 10.00 Fair CLR 81.7 55.8 41% 81 29.9 0.0
23 13:55 NW 8 10.00 Fair CLR 81 56.7 43% 81 29.9 0.0
23 13:35 W 9 10.00 Fair CLR 80.6 57.6 45% 81 29.9 0.0
23 13:15 W 8 10.00 Fair CLR 80.1 59.4 49% 81 29.9 0.0
23 12:35 W 5 10.00 Fair CLR 79 61.7 56% 80 29.9 0.0
23 12:15 W 3 10.00 Partly Cloudy SCT032 SCT039 78.3 61.9 57% 80 29.9 0.0
23 11:55 W 6 10.00 Partly Cloudy SCT029 SCT039 77.9 62.6 59% 80 29.91 0.0
23 11:35 NW 10 10.00 Partly Cloudy SCT023 77.7 62.2 59% 79 29.9 0.0
23 11:15 NW 7 10.00 Partly Cloudy SCT023 SCT027 76.3 64.8 68% 78 29.9 0.0
23 10:55 W 10 10.00 Partly Cloudy SCT016 SCT022 SCT031 76.5 66.2 71% 78 29.9 0.0
23 10:35 W 7 10.00 Partly Cloudy SCT016 74.7 66.7 76% 29.9 0.0
23 10:15 W 8 10.00 Partly Cloudy SCT010 73.2 66.2 79% 29.9 0.0
23 09:55 W 8 10.00 Partly Cloudy SCT010 72.1 66.4 82% 29.9 0.0
23 09:35 W 9 10.00 Partly Cloudy SCT008 SCT013 70.9 65.7 84% 29.91 0.0
23 09:15 W 7 10.00 Partly Cloudy SCT006 69.8 64.9 85% 29.91 0.0
23 08:55 W 5 10.00 Partly Cloudy SCT006 SCT023 69.1 64.9 87% 29.91 0.0
23 08:35 SW 5 10.00 Partly Cloudy SCT006 SCT023 68.4 64.6 88% 29.91 0.0
23 08:15 W 5 10.00 Partly Cloudy SCT004 67.3 64.2 90% 29.91 0.0
23 07:55 SW 3 10.00 Partly Cloudy SCT004 66.4 63.9 92% 29.9 0.0
23 07:35 Calm 10.00 Partly Cloudy SCT004 65.3 62.6 91% 29.9 0.0
23 07:15 Calm 10.00 Fair CLR 64.6 62.1 92% 29.9 0.0
23 06:55 Calm 10.00 Fair CLR 63.5 61 63.5 58.8 92% 29.9 0.0
23 06:35 Calm 10.00 Partly Cloudy SCT003 62.2 59.9 92% 29.9 0.0
23 06:15 Calm 10.00 Mostly Cloudy BKN003 61.9 59.4 92% 29.9 0.0
23 05:55 W 5 10.00 Fair CLR 59.9 57.2 91% 29.9 0.0
23 05:35 Calm 10.00 Fair CLR 60.3 57.7 91% 29.89 0.0
23 05:15 W 5 10.00 Fair CLR 59.9 57.4 91% 29.89 0.0
23 04:55 Calm 10.00 Fair CLR 59.7 57.2 91% 29.89 0.0
23 04:35 Calm 10.00 Fair CLR 59.2 56.7 91% 29.89 0.0
23 04:15 Calm 10.00 Fair CLR 58.8 56.3 91% 29.88 0.0
23 03:55 Calm 10.00 Fair CLR 60.3 57.7 91% 29.89 0.0
23 03:35 Calm 10.00 Fair CLR 60.3 57.7 91% 29.89 0.0
23 03:15 W 6 10.00 Fair CLR 60.4 58.1 92% 29.88 0.0
23 02:55 Calm 10.00 Fair CLR 60.3 57.7 91% 29.89 0.0
23 02:35 Calm 10.00 Fair CLR 60.6 58.1 91% 29.88 0.0
23 02:15 Calm 10.00 Fair CLR 60.8 58.3 91% 29.88 0.0
23 01:55 Calm 10.00 Partly Cloudy SCT016 61.3 58.5 90% 29.88 0.0
23 01:35 NE 5 10.00 Mostly Cloudy BKN018 62.4 58.6 88% 29.88 0.0
23 01:15 N 5 10.00 Overcast OVC018 63.3 58.1 83% 29.89 0.0
23 00:55 NE 7 10.00 Overcast OVC016 63.7 58.5 68.9 63.7 83% 29.89 0.0
23 00:35 N 6 10.00 Overcast OVC014 64.8 59.9 84% 29.88 0.0
23 00:15 N 6 10.00 Overcast BKN012 OVC020 64.8 61 88% 29.88 0.0
22 23:55 N 3 10.00 Overcast OVC020 65.3 62.2 90% 29.88 0.0
22 23:35 NW 5 10.00 Mostly Cloudy SCT017 BKN022 64.9 62.1 90% 29.88 0.0
22 23:15 N 6 10.00 Mostly Cloudy BKN020 65.3 61.2 87% 29.88 0.0
22 22:55 N 9 10.00 Overcast OVC018 66.2 61 83% 29.88 0.0
22 22:35 N 7 G 17 10.00 Overcast OVC016 66.2 60.8 83% 29.88 0.0
22 22:15 N 10 10.00 Overcast OVC016 66.2 61.3 84% 29.88 0.0
22 21:55 NW 9 10.00 Overcast OVC014 66.2 61.2 84% 29.87 0.0
22 21:35 NW 12 G 17 10.00 Overcast OVC012 66.2 61.5 85% 29.86 0.0
22 21:15 N 8 10.00 Overcast OVC012 66.6 62.1 86% 29.85 0.0
22 20:55 N 12 10.00 Overcast OVC012 66.7 62.2 86% 29.84 0.0
22 20:35 N 14 10.00 Overcast OVC012 67.1 62.4 85% 29.84 0.0
22 20:15 N 13 10.00 Overcast OVC012 67.5 62.8 85% 29.84 0.0
22 19:55 N 6 G 17 10.00 Overcast OVC012 68 63.3 85% 29.83 0.0
22 19:35 NW 12 10.00 Overcast OVC012 68.2 63.5 85% 29.84 0.0
22 19:15 NW 9 10.00 Overcast BKN010 OVC095 68.9 63.3 83% 29.82 0.0
22 18:55 N 7 10.00 Overcast OVC012 69.1 63.5 71.6 67.5 83% 29.81 0.0 0.71
22 18:35 NW 12 10.00 Overcast OVC012 68.9 63.7 84% 29.82 0.0
22 18:15 N 6 10.00 Overcast OVC012 68.7 64.2 86% 29.82 0.0
22 17:55 NW 10 10.00 Overcast OVC012 68.7 65.3 89% 29.83 0.0
22 17:35 NW 13 5.00 Overcast with Haze BKN010 BKN015 OVC027 69.1 64.4 85% 29.83 0.0
22 17:15 N 14 10.00 Overcast BKN013 BKN020 OVC027 70 64.4 83% 29.83 0.0
22 16:55 N 9 10.00 Overcast BKN011 OVC017 69.6 65.1 86% 29.83 0.0
22 16:35 NW 12 G 17 10.00 Overcast SCT009 OVC017 70.7 66 85% 29.82 0.0
22 16:15 NW 10 10.00 Overcast SCT009 OVC014 70.9 65.5 83% 29.83 0.0
22 15:55 N 8 10.00 Overcast SCT011 OVC016 71.1 66.2 85% 29.82 0.0 0.71
22 15:35 NW 10 10.00 Overcast BKN009 OVC070 70.7 66.4 86% 29.83 0.0
22 15:15 Calm 10.00 Mostly Cloudy SCT007 BKN070 69.4 66.9 92% 29.82 0.0
22 14:55 E 6 10.00 Mostly Cloudy SCT005 SCT021 BKN038 68.5 66 92% 29.79 0.0 0.16
22 14:35 E 8 G 17 7.00 Light Rain SCT005 BKN029 OVC038 67.8 65.1 91% 29.79 0.0 0.16
22 14:15 NE 14 G 18 3.00 Heavy Rain SCT005 BKN020 OVC027 67.5 64.9 92% 29.81 0.0 0.13
22 13:55 NW 15 1.50 Heavy Rain OVC008 68 65.5 92% 29.85 0.0 0.49
22 13:35 NW 7 1.00 Heavy Rain OVC008 70 67.1 91% 29.84 0.0 0.2
22 13:15 Calm 10.00 Overcast SCT013 BKN050 OVC100 70.7 66.7 87% 29.81 0.0
22 12:55 NE 5 10.00 Overcast BKN027 BKN050 OVC100 70.9 66.6 71.4 67.3 86% 29.81 0.0
22 12:35 Calm 10.00 Light Rain OVC025 71.2 66.4 85% 29.83 0.0
22 12:15 Calm 10.00 Overcast OVC019 71.1 66.2 85% 29.82 0.0
22 11:55 NE 3 10.00 Overcast OVC017 71.2 66 84% 29.83 0.0
22 11:35 Calm 10.00 Overcast OVC019 70.7 66 85% 29.84 0.0
22 11:15 Calm 10.00 Overcast BKN009 OVC016 70.3 66.2 87% 29.85 0.0
22 10:55 Calm 10.00 Overcast OVC007 70.9 66.9 87% 29.84 0.0
22 10:35 NE 6 10.00 Overcast OVC007 69.8 67.1 91% 29.83 0.0
22 10:15 NE 5 10.00 Overcast BKN007 OVC011 70 67.5 92% 29.84 0.0
22 09:55 NE 3 10.00 Overcast OVC004 69.6 66.9 91% 29.85 0.0
22 09:35 Calm 4.00 Fog/Mist OVC004 68.9 66.4 92% 29.86 0.0
22 09:15 Calm 1.75 Fog/Mist OVC004 68.5 66.2 92% 29.87 0.0
22 08:55 Calm 1.50 Fog/Mist OVC005 68.2 65.7 92% 29.88 0.0
22 08:35 Calm 5.00 Fog/Mist OVC005 68.2 65.5 91% 29.88 0.0
22 08:15 Calm 10.00 Overcast OVC007 68 65.3 91% 29.88 0.0
22 07:55 Calm 10.00 Overcast SCT002 OVC007 68 65.3 91% 29.88 0.0
22 07:35 Calm 7.00 Overcast SCT002 OVC007 68 65.3 91% 29.89 0.0
22 07:15 Calm 7.00 Overcast SCT003 OVC007 67.5 64.9 92% 29.88 0.0
22 06:55 Calm 10.00 Overcast OVC007 67.3 64.8 67.3 66.7 92% 29.89 0.0 0.01
22 06:35 Calm 7.00 Overcast OVC007 67.3 64.8 92% 29.9 0.0
22 06:15 Calm 10.00 Overcast OVC007 67.1 64.6 92% 29.89 0.0
22 05:55 Calm 10.00 Overcast OVC007 67.1 64.4 91% 29.89 0.0
22 05:35 Calm 7.00 Overcast OVC007 66.7 64.4 92% 29.88 0.0
22 05:15 Calm 7.00 Overcast OVC007 66.7 64.4 92% 29.88 0.0
22 04:55 Calm 10.00 Overcast SCT005 BKN009 OVC025 66.7 64.4 92% 29.88 0.0
22 04:35 NE 3 10.00 Overcast OVC025 66.9 64.4 92% 29.89 0.0
22 04:15 E 3 10.00 Overcast OVC025 67.1 64.4 91% 29.89 0.0
22 03:55 Calm 10.00 Overcast SCT006 BKN013 OVC023 67.1 64.4 91% 29.9 0.0 0.01
22 03:35 Calm 10.00 Overcast OVC006 67.1 64.4 91% 29.91 0.0
22 03:15 Calm 10.00 Overcast OVC006 67.1 64.6 92% 29.91 0.0
22 02:55 Calm 10.00 Overcast OVC006 67.1 64.6 92% 29.91 0.0
22 02:35 E 5 10.00 Overcast OVC004 67.3 64.8 92% 29.92 0.0
22 02:15 Calm 10.00 Light Rain OVC004 67.3 64.6 91% 29.93 0.0
22 01:55 E 6 7.00 Light Rain OVC004 67.1 64.4 91% 29.91 0.0 0.01
22 01:35 E 8 10.00 Light Rain OVC004 67.1 64.4 91% 29.91 0.0
22 01:15 E 6 10.00 Overcast OVC004 67.1 64.6 92% 29.94 0.0
22 00:55 E 6 10.00 Light Drizzle OVC006 67.1 64.6 69.8 67.1 92% 29.95 0.0 0.3
22 00:35 E 5 10.00 Overcast OVC006 67.3 64.8 92% 29.98 0.0
22 00:15 E 7 10.00 Overcast OVC008 67.3 64.8 92% 29.98 0.0
21 23:55 E 6 10.00 Light Drizzle OVC008 67.3 64.8 92% 29.99 0.0
21 23:35 E 6 10.00 Overcast OVC006 67.3 64.8 92% 29.98 0.0
21 23:15 E 6 10.00 Overcast OVC006 67.3 64.8 92% 29.99 0.0
21 22:55 E 6 10.00 Overcast OVC008 67.3 64.6 91% 29.99 0.0 0.02
21 22:35 E 7 10.00 Light Drizzle OVC008 67.3 64.6 91% 30 0.0 0.02
21 22:15 NE 3 7.00 Light Rain BKN006 OVC010 67.3 64.8 92% 30 0.0 0.02
21 21:55 E 7 5.00 Rain BKN007 OVC013 67.3 64.8 92% 29.99 0.0 0.15 0.27
21 21:35 E 6 5.00 Rain BKN007 OVC011 67.5 64.9 92% 30.01 0.0 0.09
21 21:15 E 3 4.00 Rain BKN009 OVC013 67.5 64.9 92% 30 0.0 0.05
21 20:55 E 10 5.00 Rain OVC011 67.8 65.1 91% 29.99 0.0 0.11
21 20:35 E 8 10.00 Rain OVC011 68 65.5 92% 30 0.0 0.05
21 19:55 E 10 10.00 Light Rain OVC009 68.9 66.2 91% 30.01 0.0
21 19:35 E 7 10.00 Light Rain OVC013 69.3 65.7 88% 30.01 0.0
21 19:15 E 10 10.00 Overcast OVC013 69.8 65.3 86% 30.02 0.0
21 18:55 E 8 G 18 10.00 Overcast OVC013 69.8 65.1 70.7 69.1 85% 30.03 0.0
21 18:35 E 9 10.00 Overcast OVC013 70.2 65.7 86% 30.04 0.0
21 18:15 E 8 10.00 Overcast OVC013 70.3 65.7 85% 30.04 0.0
21 17:55 E 10 10.00 Overcast OVC011 70.3 65.7 85% 30.05 0.0
21 17:35 E 7 10.00 Overcast OVC011 70.7 65.5 84% 30.08 0.0
21 17:15 E 6 10.00 Overcast OVC011 70.3 65.5 85% 30.08 0.0
21 16:55 E 7 10.00 Overcast OVC011 70.2 65.5 85% 30.08 0.0
21 16:35 E 9 10.00 Overcast OVC011 70 65.3 85% 30.09 0.0
21 16:15 E 9 10.00 Overcast OVC011 70.3 65.3 84% 30.09 0.0
21 15:55 E 8 10.00 Overcast OVC011 70.7 65.7 84% 30.1 0.0
21 15:35 E 7 10.00 Overcast OVC011 70.3 65.7 85% 30.11 0.0
21 15:15 E 8 10.00 Overcast OVC011 70.3 65.5 85% 30.11 0.0
21 14:55 E 7 10.00 Overcast OVC011 70 65.3 85% 30.11 0.0
21 14:35 E 10 10.00 Overcast OVC011 70 65.3 85% 30.11 0.0
21 14:15 E 8 10.00 Overcast OVC009 69.8 65.7 87% 30.13 0.0
21 13:55 NE 9 10.00 Light Rain OVC011 69.8 65.3 86% 30.14 0.0
21 13:35 NE 7 10.00 Overcast OVC009 69.3 65.1 87% 30.15 0.0
21 13:15 E 7 10.00 Overcast OVC009 69.4 65.3 87% 30.15 0.0
21 12:55 E 9 10.00 Overcast OVC009 69.1 65.1 69.3 64.2 87% 30.15 0.0 0.01
21 12:35 E 6 10.00 Overcast OVC009 69.1 65.3 88% 30.16 0.0
21 12:15 E 6 10.00 Overcast OVC007 68.9 65.3 88% 30.16 0.0
21 11:55 E 7 10.00 Overcast BKN007 OVC011 68.9 65.3 88% 30.16 0.0
21 11:35 E 9 10.00 Overcast OVC007 68.2 65.3 91% 30.16 0.0
21 11:15 E 8 10.00 Overcast OVC005 68 65.3 91% 30.16 0.0
21 10:55 NE 9 7.00 Overcast OVC003 67.5 64.9 92% 30.16 0.0
21 10:35 NE 8 7.00 Overcast OVC003 67.1 64.4 91% 30.16 0.0
21 10:15 NE 8 7.00 Overcast OVC003 66.6 64 92% 30.17 0.0
21 09:55 E 9 7.00 Overcast OVC003 66.6 64 92% 30.17 0.0 0.01
21 09:35 NE 7 7.00 Overcast OVC003 66.2 63.5 91% 30.18 0.0
21 09:15 NE 8 7.00 Overcast OVC003 65.8 63.3 92% 30.19 0.0
21 08:55 NE 8 7.00 Overcast OVC003 65.7 63.3 92% 30.19 0.0
21 08:35 NE 7 7.00 Overcast OVC003 65.1 62.8 92% 30.19 0.0
21 08:15 N 6 5.00 Rain OVC003 64.8 62.2 92% 30.19 0.0
21 07:55 Calm 4.00 Light Rain OVC003 65.1 62.6 92% 30.2 0.0 0.01
21 07:35 NE 3 4.00 Light Rain OVC003 64.8 62.2 92% 30.18 0.0 0.01
21 07:15 NE 5 3.00 Light Rain OVC003 64.4 61.9 92% 30.14 0.0
21 06:55 E 12 3.00 Fog/Mist OVC003 64.2 61.7 64.2 62.8 92% 30.12 0.0 0.01 0.23
21 06:35 E 10 3.00 Light Rain OVC003 63.7 61.2 92% 30.15 0.0 0.01
21 06:15 E 7 4.00 Light Rain SCT003 SCT075 BKN100 63.5 60.8 91% 30.18 0.0
21 05:55 E 6 5.00 Light Drizzle SCT003 SCT060 BKN110 63.3 60.8 92% 30.19 0.0 0.06
21 05:35 E 6 5.00 Light Rain SCT041 BKN060 OVC110 63.1 60.8 92% 30.2 0.0 0.06
21 05:15 E 5 5.00 Rain SCT035 BKN045 OVC060 63.1 60.6 92% 30.22 0.0 0.04
21 04:55 Calm 4.00 Rain SCT038 OVC046 63.3 60.8 92% 30.23 0.0 0.14
21 04:35 SE 5 7.00 Rain SCT046 OVC060 63 60.4 92% 30.23 0.0 0.06
21 04:15 SE 5 7.00 Rain SCT038 BKN047 OVC085 63 60.4 92% 30.22 0.0 0.03
21 03:55 Calm 10.00 Light Rain BKN038 OVC090 63.5 60.8 91% 30.21 0.0 0.01 0.01
21 03:35 E 3 10.00 Overcast SCT008 BKN035 OVC041 63.7 60.4 89% 30.22 0.0
21 03:15 NE 3 10.00 Overcast OVC010 63.7 60.8 90% 30.23 0.0
21 02:55 E 3 10.00 Overcast OVC010 63.7 60.8 90% 30.24 0.0
21 02:35 E 5 10.00 Overcast OVC010 63.7 60.8 90% 30.24 0.0
21 02:15 E 3 10.00 Overcast OVC014 63.5 60.4 90% 30.24 0.0
21 01:55 E 5 10.00 Overcast BKN014 OVC044 63.1 60.6 92% 30.24 0.0
21 01:35 NE 5 10.00 Mostly Cloudy SCT012 SCT024 BKN044 62.8 60.3 92% 30.24 0.0
Date Time (cdt) Wind (mph) Vis. (mi.) Weather Sky Cond. Air Dwpt Max. Min. Relative Humidity Wind Chill (°F) Heat Index (°F) altimeter (in) sea level (mb) 1 hr 3 hr 6 hr
6 hour
Temperature (ºF) Pressure Precipitation (in)